Weather History for KMPZ - December, 2012

Change the Weather History Date:

Monday, December 31, 2012

  Actual Average Record
Temperature  
Mean Temperature 26 °F -  
Max Temperature 35 °F 30 °F 62 °F (1965)
Min Temperature 18 °F 13 °F -14 °F (1968)
Degree Days  
Heating Degree Days 38    
Moisture  
Dew Point 17 °F    
Average Humidity 73    
Maximum Humidity 77    
Minimum Humidity 62    
Precipitation  
Precipitation 0.00 in - - ()
Sea Level Pressure  
Sea Level Pressure 30.13 in    
Wind  
Wind Speed 11 mph (WNW)    
Max Wind Speed 15 mph    
Max Gust Speed 20 mph    
Visibility 10 miles    
Events      
Averages and records for this station are not official NWS values.
T = Trace of Precipitation, MM = Missing Value Source: NWS Daily Summary

Daily Weather History Graph

Daily Weather History Graph

Search for Another Location

Airport or City:

Trip Planner

Search our weather history database for the weather conditions in past years. The results will help you decide how hot, cold, wet, or windy it might be!

Date:

Astronomy

Dec. 31, 2012 Rise Set
Actual Time 7:30 AM CST 4:48 PM CST
Civil Twilight 6:59 AM CST 5:19 PM CST
Nautical Twilight 6:25 AM CST 5:53 PM CST
Astronomical Twilight 5:51 AM CST 6:26 PM CST
Moon 8:20 PM CST (12/31) 9:10 AM CST (12/31)
Length of Visible Light 10h 19m
Length of Day
9h 17m
Waning Gibbous, 90% of the Moon is Illuminated
Dec 31
Waning Gibbous
Jan 4
Last Quarter
Jan 11
New
Jan 18
First Quarter
Jan 26
Full

Hourly Weather History & Observations

Time (CST) Temp. Windchill Dew Point Humidity Pressure Visibility Wind Dir Wind Speed Gust Speed Precip Events Conditions
12:15 AM 35.6 °F 26.2 °F 23.9 °F 62% 30.06 in 10.0 mi SSW 15.0 mph 19.6 mph N/A   Clear
12:35 AM 35.2 °F 25.8 °F 23.9 °F 63% 30.06 in 10.0 mi SSW 15.0 mph - N/A   Scattered Clouds
12:55 AM 34.9 °F 25.7 °F 23.4 °F 63% 30.05 in 10.0 mi SSW 13.8 mph - N/A   Clear
1:15 AM 34.9 °F 25.7 °F 23.7 °F 64% 30.06 in 10.0 mi SSW 13.8 mph - N/A   Clear
1:55 AM 34.7 °F 26.4 °F 23.9 °F 65% 30.07 in 10.0 mi SSW 11.5 mph - N/A   Clear
2:15 AM 34.7 °F 26.4 °F 23.7 °F 64% 30.07 in 10.0 mi SSW 11.5 mph - N/A   Clear
2:35 AM 34.2 °F 25.2 °F 23.7 °F 66% 30.08 in 10.0 mi SSW 12.7 mph 18.4 mph N/A   Clear
2:55 AM 34.5 °F 26.2 °F 23.9 °F 65% 30.08 in 10.0 mi SW 11.5 mph - N/A   Clear
3:15 AM 34.0 °F 26.0 °F 24.3 °F 68% 30.08 in 10.0 mi SW 10.4 mph - N/A   Clear
3:35 AM 34.0 °F 25.5 °F 24.4 °F 68% 30.08 in 10.0 mi SW 11.5 mph - N/A   Scattered Clouds
3:55 AM 33.8 °F 25.8 °F 24.4 °F 69% 30.08 in 10.0 mi SW 10.4 mph - N/A   Scattered Clouds
4:15 AM 34.2 °F 25.7 °F 24.6 °F 68% 30.07 in 10.0 mi WSW 11.5 mph - N/A   Mostly Cloudy
4:35 AM 34.2 °F 26.8 °F 24.4 °F 68% 30.07 in 10.0 mi WSW 9.2 mph - N/A   Scattered Clouds
4:55 AM 34.2 °F 26.2 °F 24.4 °F 68% 30.07 in 10.0 mi WSW 10.4 mph - N/A   Scattered Clouds
5:15 AM 34.3 °F 27.7 °F 24.3 °F 67% 30.07 in 10.0 mi West 8.1 mph - N/A   Mostly Cloudy
5:35 AM 32.9 °F 25.3 °F 24.8 °F 72% 30.07 in 10.0 mi West 9.2 mph - N/A   Overcast
5:55 AM 32.0 °F 23.6 °F 25.3 °F 76% 30.09 in 10.0 mi WNW 10.4 mph - N/A   Overcast
6:15 AM 31.1 °F 23.7 °F 24.4 °F 76% 30.10 in 10.0 mi WNW 8.1 mph - N/A   Overcast
6:55 AM 29.3 °F 22.3 °F 22.1 °F 75% 30.11 in 10.0 mi WNW 6.9 mph - N/A   Overcast
7:15 AM 28.8 °F 20.2 °F 21.7 °F 75% 30.12 in 10.0 mi WNW 9.2 mph - N/A   Overcast
7:35 AM 28.0 °F 20.8 °F 19.8 °F 71% 30.12 in 10.0 mi WNW 6.9 mph - N/A   Overcast
7:55 AM 27.1 °F 18.9 °F 19.4 °F 73% 30.11 in 10.0 mi NW 8.1 mph - N/A   Overcast
8:15 AM 26.4 °F 16.6 °F 19.4 °F 75% 30.11 in 10.0 mi WNW 10.4 mph - N/A   Overcast
8:35 AM 25.3 °F 18.5 °F 18.3 °F 75% 30.13 in 10.0 mi WNW 5.8 mph - N/A   Overcast
8:55 AM 25.2 °F 15.1 °F 18.0 °F 74% 30.14 in 10.0 mi WNW 10.4 mph - N/A   Overcast
9:15 AM 24.6 °F 16.7 °F 18.0 °F 76% 30.14 in 10.0 mi NW 6.9 mph - N/A   Overcast
9:35 AM 23.9 °F 16.8 °F 16.7 °F 74% 30.15 in 10.0 mi NW 5.8 mph - N/A   Overcast
9:55 AM 23.2 °F 13.3 °F 16.3 °F 75% 30.15 in 10.0 mi WNW 9.2 mph - N/A   Overcast
10:15 AM 23.0 °F 14.7 °F 16.2 °F 75% 30.16 in 10.0 mi NW 6.9 mph - N/A   Overcast
10:35 AM 22.6 °F 11.9 °F 16.2 °F 76% 30.17 in 10.0 mi WNW 10.4 mph - N/A   Overcast
10:55 AM 22.6 °F 14.3 °F 16.3 °F 77% 30.16 in 10.0 mi NW 6.9 mph - N/A   Overcast
11:15 AM 22.1 °F 12.0 °F 15.8 °F 77% 30.16 in 10.0 mi NNW 9.2 mph - N/A   Overcast
11:35 AM 21.9 °F 12.5 °F 15.1 °F 75% 30.15 in 10.0 mi NW 8.1 mph - N/A   Overcast
11:55 AM 21.7 °F 12.3 °F 14.9 °F 75% 30.14 in 10.0 mi NW 8.1 mph - N/A   Overcast
12:15 PM 21.7 °F 12.3 °F 14.4 °F 73% 30.15 in 10.0 mi NW 8.1 mph - N/A   Overcast
12:35 PM 22.6 °F 12.6 °F 15.3 °F 73% 30.13 in 10.0 mi NW 9.2 mph - N/A   Overcast
12:55 PM 23.0 °F 12.4 °F 15.3 °F 72% 30.13 in 10.0 mi WNW 10.4 mph - N/A   Overcast
1:15 PM 22.3 °F 13.9 °F 14.9 °F 73% 30.13 in 10.0 mi NW 6.9 mph - N/A   Overcast
1:35 PM 22.5 °F 13.2 °F 15.1 °F 73% 30.13 in 10.0 mi NW 8.1 mph - N/A   Overcast
1:55 PM 23.0 °F 12.4 °F 15.6 °F 73% 30.12 in 10.0 mi WNW 10.4 mph - N/A   Overcast
2:15 PM 22.6 °F 11.9 °F 15.6 °F 74% 30.12 in 10.0 mi NW 10.4 mph - N/A   Overcast
2:35 PM 22.3 °F 12.2 °F 15.6 °F 76% 30.13 in 10.0 mi WNW 9.2 mph - N/A   Overcast
2:55 PM 22.1 °F 12.0 °F 15.4 °F 76% 30.12 in 10.0 mi NNW 9.2 mph - N/A   Overcast
3:15 PM 22.1 °F 11.3 °F 15.4 °F 76% 30.12 in 10.0 mi NNW 10.4 mph - N/A   Overcast
3:35 PM 21.6 °F 9.9 °F 14.9 °F 76% 30.12 in 10.0 mi NNW 11.5 mph - N/A   Mostly Cloudy
3:55 PM 20.5 °F 9.2 °F 13.1 °F 73% 30.12 in 10.0 mi NNW 10.4 mph - N/A   Overcast
4:15 PM 20.1 °F 8.8 °F 12.6 °F 73% 30.13 in 10.0 mi NW 10.4 mph - N/A   Overcast
4:35 PM 19.9 °F 8.6 °F 12.9 °F 74% 30.12 in 10.0 mi NNW 10.4 mph - N/A   Overcast
4:55 PM 19.8 °F 9.9 °F 12.2 °F 72% 30.13 in 10.0 mi NNW 8.1 mph - N/A   Overcast
5:15 PM 19.4 °F 7.9 °F 12.2 °F 74% 30.13 in 10.0 mi NNW 10.4 mph - N/A   Overcast
5:35 PM 19.4 °F 7.9 °F 12.0 °F 73% 30.14 in 10.0 mi NW 10.4 mph - N/A   Overcast
6:15 PM 19.2 °F 7.7 °F 11.8 °F 73% 30.14 in 10.0 mi NW 10.4 mph - N/A   Overcast
6:35 PM 19.2 °F 6.4 °F 12.0 °F 74% 30.15 in 10.0 mi NNW 12.7 mph - N/A   Overcast
7:15 PM 19.0 °F 6.8 °F 12.2 °F 75% 30.15 in 10.0 mi NNW 11.5 mph - N/A   Overcast
7:35 PM 18.9 °F 5.9 °F 11.8 °F 74% 30.15 in 10.0 mi NNW 12.7 mph - N/A   Overcast
7:55 PM 18.9 °F 6.5 °F 11.7 °F 74% 30.16 in 10.0 mi NW 11.5 mph - N/A   Overcast
8:15 PM 18.7 °F 5.7 °F 11.3 °F 73% 30.16 in 10.0 mi NNW 12.7 mph - N/A   Overcast
8:35 PM 18.7 °F 7.0 °F 11.3 °F 73% 30.17 in 10.0 mi NNW 10.4 mph - N/A   Overcast
8:55 PM 18.5 °F 5.5 °F 11.5 °F 74% 30.17 in 10.0 mi NNW 12.7 mph - N/A   Overcast
9:15 PM 18.5 °F 9.3 °F 11.5 °F 74% 30.18 in 10.0 mi NW 6.9 mph - N/A   Overcast
9:35 PM 18.5 °F 6.8 °F 11.8 °F 75% 30.17 in 10.0 mi NNW 10.4 mph - N/A   Overcast
9:55 PM 18.5 °F 7.5 °F 12.2 °F 76% 30.18 in 10.0 mi NNW 9.2 mph - N/A   Overcast
10:15 PM 18.5 °F 6.1 °F 12.0 °F 76% 30.18 in 10.0 mi NNW 11.5 mph 16.1 mph N/A   Overcast
10:35 PM 18.5 °F 5.5 °F 12.4 °F 77% 30.19 in 10.0 mi NNW 12.7 mph 17.3 mph N/A   Overcast
10:55 PM 18.3 °F 5.9 °F 11.8 °F 76% 30.18 in 10.0 mi NNW 11.5 mph - N/A   Overcast
11:15 PM 18.1 °F 7.1 °F 11.3 °F 75% 30.19 in 10.0 mi NNW 9.2 mph - N/A   Overcast
11:35 PM 18.1 °F 5.6 °F 11.3 °F 75% 30.19 in 10.0 mi NNW 11.5 mph - N/A   Overcast